CGIST CYWP-CYPL

Flight info

Callsign CGIST
Flight time N/A
Altitude 4500
Route DCT
Aircraft C172/L-ACIO/L

Departure

Time 2026-04-15 00:28
Airport Webequie Airport (CYWP)

Arrival

Time N/A
Airport Pickle Lake Airport (CYPL)
Time Latitude Longitude Altitude Speed Heading
2026-04-15 00:24 52.96391 -87.37124 688 ft 0 kts 60°
2026-04-15 00:25 52.96402 -87.37132 686 ft 2 kts 266°
2026-04-15 00:26 52.96401 -87.37143 684 ft 5 kts 257°
2026-04-15 00:26 52.96390 -87.37277 682 ft 2 kts 268°
2026-04-15 00:27 52.96380 -87.37321 681 ft 10 kts 218°
2026-04-15 00:27 52.96227 -87.37400 686 ft 57 kts 195°
2026-04-15 00:27 52.95676 -87.37626 906 ft 89 kts 194°
2026-04-15 00:27 52.95058 -87.38043 1172 ft 112 kts 210°
2026-04-15 00:28 52.94343 -87.38817 1353 ft 130 kts 219°
2026-04-15 00:28 52.93638 -87.39814 1524 ft 137 kts 222°
2026-04-15 00:28 52.92922 -87.40901 1700 ft 140 kts 223°
2026-04-15 00:28 52.92206 -87.42017 1876 ft 142 kts 224°
2026-04-15 00:29 52.91490 -87.43148 2051 ft 142 kts 224°
2026-04-15 00:29 52.90780 -87.44273 2224 ft 142 kts 224°
2026-04-15 00:29 52.90064 -87.45413 2401 ft 142 kts 224°
2026-04-15 00:29 52.89350 -87.46563 2576 ft 142 kts 226°
2026-04-15 00:30 52.88706 -87.47776 2753 ft 141 kts 232°
2026-04-15 00:30 52.88110 -87.49074 2928 ft 141 kts 234°
2026-04-15 00:30 52.87538 -87.50389 3100 ft 141 kts 235°
2026-04-15 00:30 52.86968 -87.51726 3276 ft 141 kts 235°
2026-04-15 00:31 52.86403 -87.53061 3454 ft 141 kts 236°
2026-04-15 00:31 52.85849 -87.54376 3627 ft 140 kts 236°
2026-04-15 00:31 52.85290 -87.55703 3801 ft 140 kts 236°
2026-04-15 00:31 52.84734 -87.57028 3977 ft 140 kts 236°
2026-04-15 00:32 52.84177 -87.58354 4154 ft 140 kts 236°
2026-04-15 00:32 52.83627 -87.59667 4323 ft 140 kts 236°
2026-04-15 00:32 52.83059 -87.61021 4422 ft 144 kts 236°
2026-04-15 00:32 52.82479 -87.62405 4473 ft 149 kts 236°
2026-04-15 00:33 52.82086 -87.63344 4481 ft 152 kts 236°
2026-04-15 00:33 52.81474 -87.64812 4493 ft 154 kts 236°
2026-04-15 00:33 52.80864 -87.66270 4494 ft 155 kts 236°
2026-04-15 00:33 52.80253 -87.67731 4493 ft 155 kts 236°
2026-04-15 00:34 52.79643 -87.69191 4494 ft 155 kts 236°
2026-04-15 00:34 52.79033 -87.70649 4496 ft 155 kts 236°
2026-04-15 00:34 52.78421 -87.72118 4498 ft 155 kts 236°
2026-04-15 00:34 52.77803 -87.73603 4506 ft 156 kts 236°
2026-04-15 00:35 52.77194 -87.75064 4505 ft 156 kts 236°
2026-04-15 00:35 52.76579 -87.76544 4500 ft 156 kts 236°
2026-04-15 00:35 52.75967 -87.78015 4496 ft 155 kts 236°
2026-04-15 00:35 52.75356 -87.79483 4497 ft 155 kts 236°
2026-04-15 00:36 52.74745 -87.80951 4498 ft 155 kts 236°
2026-04-15 00:36 52.74137 -87.82415 4497 ft 155 kts 236°
2026-04-15 00:36 52.73529 -87.83880 4501 ft 155 kts 236°
2026-04-15 00:36 52.72915 -87.85359 4499 ft 155 kts 236°
2026-04-15 00:37 52.72290 -87.86799 4505 ft 155 kts 233°
2026-04-15 00:37 52.71620 -87.88206 4500 ft 155 kts 231°
2026-04-15 00:37 52.70911 -87.89519 4502 ft 155 kts 228°
2026-04-15 00:37 52.70167 -87.90820 4503 ft 156 kts 226°
2026-04-15 00:38 52.69411 -87.92115 4503 ft 156 kts 226°
2026-04-15 00:38 52.68654 -87.93401 4497 ft 156 kts 226°
2026-04-15 00:38 52.67904 -87.94665 4495 ft 155 kts 226°
2026-04-15 00:38 52.67145 -87.95943 4498 ft 155 kts 226°
2026-04-15 00:39 52.66387 -87.97218 4496 ft 155 kts 226°
2026-04-15 00:39 52.65635 -87.98487 4501 ft 155 kts 226°
2026-04-15 00:39 52.64882 -87.99757 4499 ft 155 kts 226°
2026-04-15 00:39 52.64122 -88.01037 4500 ft 155 kts 226°
2026-04-15 00:40 52.63365 -88.02314 4504 ft 156 kts 226°
2026-04-15 00:40 52.62617 -88.03576 4502 ft 156 kts 226°
2026-04-15 00:40 52.61858 -88.04857 4499 ft 155 kts 226°
2026-04-15 00:40 52.61099 -88.06139 4499 ft 155 kts 226°
2026-04-15 00:41 52.60355 -88.07400 4503 ft 155 kts 226°
2026-04-15 00:41 52.59601 -88.08675 4500 ft 155 kts 226°
2026-04-15 00:41 52.58842 -88.09956 4499 ft 155 kts 226°
2026-04-15 00:41 52.58091 -88.11223 4500 ft 155 kts 226°
2026-04-15 00:42 52.57334 -88.12502 4498 ft 155 kts 226°
2026-04-15 00:42 52.56584 -88.13768 4498 ft 155 kts 226°
2026-04-15 00:42 52.55833 -88.15039 4501 ft 155 kts 226°
2026-04-15 00:42 52.55082 -88.16308 4501 ft 155 kts 226°
2026-04-15 00:43 52.54327 -88.17585 4504 ft 155 kts 226°
2026-04-15 00:43 52.53571 -88.18865 4503 ft 156 kts 226°
2026-04-15 00:43 52.52814 -88.20150 4510 ft 157 kts 226°
2026-04-15 00:43 52.52062 -88.21427 4498 ft 156 kts 226°
2026-04-15 00:44 52.51299 -88.22720 4500 ft 156 kts 226°
2026-04-15 00:44 52.50545 -88.23999 4497 ft 156 kts 226°
2026-04-15 00:44 52.49793 -88.25274 4494 ft 155 kts 226°
2026-04-15 00:44 52.49044 -88.26543 4495 ft 155 kts 226°
2026-04-15 00:45 52.48292 -88.27819 4496 ft 155 kts 226°
2026-04-15 00:45 52.47542 -88.29092 4500 ft 155 kts 226°
2026-04-15 00:45 52.46789 -88.30371 4499 ft 155 kts 226°
2026-04-15 00:45 52.46042 -88.31640 4504 ft 152 kts 226°
2026-04-15 00:46 52.45312 -88.32879 4499 ft 149 kts 226°
2026-04-15 00:46 52.44603 -88.34084 4499 ft 147 kts 226°
2026-04-15 00:46 52.43887 -88.35308 4512 ft 147 kts 226°
2026-04-15 00:46 52.43178 -88.36517 4503 ft 151 kts 226°
2026-04-15 00:47 52.42446 -88.37765 4499 ft 154 kts 226°
2026-04-15 00:47 52.41698 -88.39041 4499 ft 155 kts 226°
2026-04-15 00:47 52.40950 -88.40312 4504 ft 155 kts 226°
2026-04-15 00:47 52.40198 -88.41594 4500 ft 156 kts 226°
2026-04-15 00:48 52.39455 -88.42858 4496 ft 155 kts 226°
2026-04-15 00:48 52.38699 -88.44146 4498 ft 155 kts 226°
2026-04-15 00:48 52.37950 -88.45422 4503 ft 156 kts 226°
2026-04-15 00:48 52.37206 -88.46694 4503 ft 156 kts 226°
2026-04-15 00:49 52.36455 -88.47976 4504 ft 156 kts 226°
2026-04-15 00:49 52.35704 -88.49258 4499 ft 156 kts 226°
2026-04-15 00:49 52.34954 -88.50537 4499 ft 156 kts 227°
2026-04-15 00:49 52.34201 -88.51822 4499 ft 156 kts 226°
2026-04-15 00:50 52.33451 -88.53104 4499 ft 156 kts 227°
2026-04-15 00:50 52.32705 -88.54378 4497 ft 155 kts 227°
2026-04-15 00:50 52.31960 -88.55651 4504 ft 156 kts 227°
2026-04-15 00:50 52.31201 -88.56950 4523 ft 158 kts 227°
2026-04-15 00:51 52.30447 -88.58245 4506 ft 158 kts 227°
2026-04-15 00:51 52.29687 -88.59544 4496 ft 157 kts 227°
2026-04-15 00:51 52.28939 -88.60822 4491 ft 156 kts 227°
2026-04-15 00:51 52.28180 -88.62121 4504 ft 156 kts 227°
2026-04-15 00:52 52.27423 -88.63415 4512 ft 158 kts 227°
2026-04-15 00:52 52.26666 -88.64714 4496 ft 158 kts 227°
2026-04-15 00:52 52.25913 -88.66004 4494 ft 157 kts 227°
2026-04-15 00:52 52.25168 -88.67278 4488 ft 156 kts 227°
2026-04-15 00:53 52.24419 -88.68563 4497 ft 156 kts 227°
2026-04-15 00:53 52.23666 -88.69854 4512 ft 157 kts 227°
2026-04-15 00:53 52.22910 -88.71147 4509 ft 158 kts 227°
2026-04-15 00:53 52.22152 -88.72443 4497 ft 158 kts 227°
2026-04-15 00:54 52.21391 -88.73747 4492 ft 157 kts 227°
2026-04-15 00:54 52.20644 -88.75028 4494 ft 156 kts 227°
2026-04-15 00:54 52.19904 -88.76297 4497 ft 156 kts 227°
2026-04-15 00:54 52.19153 -88.77588 4494 ft 156 kts 227°
2026-04-15 00:55 52.18406 -88.78869 4496 ft 156 kts 227°
2026-04-15 00:55 52.17667 -88.80141 4498 ft 155 kts 227°
2026-04-15 00:55 52.16918 -88.81429 4506 ft 156 kts 227°
2026-04-15 00:55 52.16169 -88.82719 4502 ft 156 kts 227°
2026-04-15 00:56 52.15427 -88.83993 4499 ft 156 kts 227°
2026-04-15 00:56 52.14682 -88.85275 4496 ft 156 kts 227°
2026-04-15 00:56 52.13941 -88.86552 4495 ft 155 kts 227°
2026-04-15 00:56 52.13198 -88.87831 4504 ft 156 kts 227°
2026-04-15 00:57 52.12453 -88.89118 4506 ft 156 kts 227°
2026-04-15 00:57 52.11706 -88.90405 4498 ft 156 kts 227°
2026-04-15 00:57 52.10959 -88.91688 4498 ft 156 kts 227°
2026-04-15 00:57 52.10211 -88.92977 4495 ft 156 kts 227°
2026-04-15 00:58 52.09472 -88.94248 4498 ft 155 kts 227°
2026-04-15 00:58 52.08733 -88.95524 4497 ft 155 kts 227°
2026-04-15 00:58 52.07991 -88.96803 4500 ft 155 kts 227°
2026-04-15 00:58 52.07246 -88.98088 4500 ft 155 kts 227°
2026-04-15 00:59 52.06511 -88.99357 4499 ft 155 kts 227°
2026-04-15 00:59 52.05770 -89.00638 4499 ft 155 kts 227°
2026-04-15 00:59 52.05032 -89.01913 4498 ft 155 kts 227°
2026-04-15 00:59 52.04291 -89.03194 4506 ft 155 kts 227°
2026-04-15 01:00 52.03551 -89.04474 4504 ft 156 kts 227°
2026-04-15 01:00 52.02817 -89.05734 4463 ft 147 kts 225°
2026-04-15 01:00 52.02113 -89.06959 4182 ft 145 kts 231°
2026-04-15 01:00 52.01484 -89.08125 4252 ft 128 kts 229°
2026-04-15 01:01 52.00871 -89.09215 4388 ft 137 kts 228°
2026-04-15 01:01 52.00202 -89.10382 4455 ft 145 kts 227°
2026-04-15 01:01 51.99498 -89.11608 4479 ft 150 kts 227°
2026-04-15 01:01 51.98785 -89.12847 4498 ft 153 kts 227°
2026-04-15 01:02 51.98041 -89.14135 4518 ft 157 kts 227°
2026-04-15 01:02 51.97292 -89.15436 4501 ft 158 kts 227°
2026-04-15 01:02 51.96539 -89.16741 4508 ft 159 kts 227°
2026-04-15 01:02 51.95784 -89.18050 4491 ft 158 kts 227°
2026-04-15 01:03 51.95038 -89.19345 4484 ft 157 kts 227°
2026-04-15 01:03 51.94301 -89.20623 4497 ft 156 kts 227°
2026-04-15 01:03 51.93554 -89.21918 4496 ft 156 kts 227°
2026-04-15 01:03 51.92818 -89.23207 4497 ft 157 kts 230°
2026-04-15 01:04 51.92230 -89.24691 4516 ft 155 kts 244°
2026-04-15 01:04 51.91817 -89.26297 4545 ft 153 kts 248°
2026-04-15 01:04 51.91460 -89.27907 4593 ft 151 kts 251°
2026-04-15 01:04 51.91235 -89.28972 4623 ft 151 kts 251°
2026-04-15 01:05 51.90810 -89.31176 4618 ft 153 kts 254°
2026-04-15 01:05 51.90609 -89.32242 4749 ft 146 kts 252°
2026-04-15 01:05 51.90295 -89.33875 4667 ft 155 kts 254°
2026-04-15 01:05 51.90008 -89.35597 4566 ft 159 kts 257°
2026-04-15 01:06 51.89714 -89.37338 4438 ft 162 kts 250°
2026-04-15 01:06 51.89310 -89.39027 4337 ft 162 kts 250°
2026-04-15 01:06 51.88847 -89.40653 4405 ft 155 kts 233°
2026-04-15 01:06 51.88147 -89.41961 4467 ft 154 kts 229°
2026-04-15 01:07 51.87437 -89.43248 4484 ft 155 kts 229°
2026-04-15 01:07 51.86703 -89.44563 4484 ft 155 kts 228°
2026-04-15 01:07 51.85982 -89.45846 4488 ft 155 kts 228°
2026-04-15 01:07 51.85256 -89.47132 4495 ft 155 kts 228°
2026-04-15 01:08 51.84527 -89.48422 4495 ft 155 kts 228°
2026-04-15 01:08 51.83799 -89.49712 4500 ft 155 kts 228°
2026-04-15 01:08 51.83075 -89.50992 4497 ft 155 kts 228°
2026-04-15 01:08 51.82344 -89.52281 4499 ft 155 kts 228°
2026-04-15 01:09 51.81617 -89.53565 4506 ft 155 kts 228°
2026-04-15 01:09 51.80887 -89.54851 4519 ft 157 kts 228°
2026-04-15 01:09 51.80150 -89.56157 4504 ft 157 kts 228°
2026-04-15 01:09 51.79412 -89.57463 4498 ft 156 kts 228°
2026-04-15 01:10 51.78676 -89.58762 4495 ft 156 kts 228°
2026-04-15 01:10 51.77945 -89.60051 4496 ft 155 kts 228°
2026-04-15 01:10 51.77220 -89.61330 4496 ft 155 kts 228°
2026-04-15 01:10 51.76492 -89.62614 4496 ft 155 kts 228°
2026-04-15 01:11 51.75762 -89.63904 4498 ft 155 kts 228°
2026-04-15 01:11 51.75040 -89.65176 4507 ft 156 kts 228°
2026-04-15 01:11 51.74292 -89.66494 4526 ft 158 kts 228°
2026-04-15 01:11 51.73561 -89.67788 4502 ft 158 kts 228°
2026-04-15 01:12 51.72814 -89.69108 4493 ft 156 kts 228°
2026-04-15 01:12 51.72091 -89.70385 4496 ft 156 kts 228°
2026-04-15 01:12 51.71355 -89.71681 4498 ft 156 kts 228°
2026-04-15 01:12 51.70627 -89.72965 4504 ft 156 kts 228°
2026-04-15 01:13 51.69892 -89.74263 4498 ft 156 kts 228°
2026-04-15 01:13 51.69162 -89.75550 4497 ft 156 kts 228°
2026-04-15 01:13 51.68431 -89.76843 4494 ft 155 kts 228°
2026-04-15 01:13 51.67702 -89.78132 4502 ft 155 kts 228°
2026-04-15 01:14 51.67019 -89.79336 4502 ft 155 kts 228°